| time (UTC) | temp C | wind direction | speed KPH | gust KPH | rain 1hr cm | rain 24hr cm | rain mn cm | humidity % | barometer mb |
| 20260504222758 | 27 | 90 | 4.8 | 24.1 | 0.00 | 0.00 | 0.00 | 58 | 1006.2 |
| 20260504221809 | 27 | 30 | 4.8 | 22.5 | 0.00 | 0.00 | 0.00 | 60 | 1006.4 |
| 20260504220758 | 27 | 94 | 4.8 | 22.5 | 0.00 | 0.00 | 0.00 | 60 | 1006.4 |
| 20260504215749 | 27 | 19 | 3.2 | 16.1 | 0.00 | 0.00 | 0.00 | 59 | 1006.5 |
| 20260504214723 | 27 | 10 | 3.2 | 19.3 | 0.00 | 0.00 | 0.00 | 59 | 1006.5 |
| 20260504213709 | 27 | 355 | 3.2 | 25.7 | 0.00 | 0.00 | 0.00 | 61 | 1006.7 |
| 20260504212731 | 27 | 342 | 4.8 | 25.7 | 0.00 | 0.00 | 0.00 | 59 | 1007.0 |
| 20260504211702 | 27 | 318 | 3.2 | 14.5 | 0.00 | 0.00 | 0.00 | 58 | 1007.1 |
| 20260504210721 | 27 | 70 | 3.2 | 19.3 | 0.00 | 0.00 | 0.00 | 60 | 1007.3 |
| 20260504205738 | 27 | 39 | 3.2 | 19.3 | 0.00 | 0.00 | 0.00 | 61 | 1007.5 |
| 20260504204706 | 26 | 14 | 4.8 | 19.3 | 0.00 | 0.00 | 0.00 | 61 | 1007.6 |
| 20260504202558 | 27 | 101 | 3.2 | 25.7 | 0.00 | 0.00 | 0.00 | 60 | 1007.9 |
| 20260504200436 | 27 | 27 | 6.4 | 22.5 | 0.00 | 0.00 | 0.00 | 60 | 1008.3 |
| 20260504195437 | 27 | 13 | 4.8 | 22.5 | 0.00 | 0.00 | 0.00 | 59 | 1008.8 |
| 20260504193324 | 27 | 350 | 6.4 | 30.6 | 0.00 | 0.00 | 0.00 | 61 | 1008.9 |
| 20260504192304 | 26 | 19 | 4.8 | 30.6 | 0.00 | 0.00 | 0.00 | 63 | 1009.1 |
| 20260504191231 | 25 | 355 | 6.4 | 22.5 | 0.00 | 0.00 | 0.00 | 61 | 1009.2 |
| 20260504190214 | 26 | 38 | 6.4 | 22.5 | 0.00 | 0.00 | 0.00 | 64 | 1009.4 |
| 20260504185228 | 26 | 349 | 4.8 | 22.5 | 0.00 | 0.00 | 0.00 | 64 | 1009.4 |
| 20260504182035 | 25 | 18 | 8.0 | 25.7 | 0.00 | 0.00 | 0.00 | 64 | 1010.0 |
| 20260504175905 | 23 | 22 | 6.4 | 24.1 | 0.00 | 0.00 | 0.00 | 68 | 1010.3 |
| 20260504174908 | 23 | 56 | 6.4 | 24.1 | 0.00 | 0.00 | 0.00 | 66 | 1010.4 |
| 20260504160313 | 22 | 36 | 8.0 | 22.5 | 0.00 | 0.00 | 0.00 | 70 | 1011.5 |
| 20260504140650 | 18 | 345 | 0.0 | 14.5 | 0.00 | 0.00 | 0.00 | 74 | 1012.1 |
| 20260504130355 | 16 | 30 | 0.0 | 9.7 | 0.00 | 0.00 | 0.00 | 79 | 1012.1 |
| 20260504080812 | 16 | 355 | 0.0 | 0.0 | 0.00 | 0.00 | 0.00 | 76 | 1012.3 |
| 20260504050238 | 17 | 45 | 0.0 | 6.4 | 0.00 | 0.00 | 0.00 | 69 | 1014.3 |
| 20260504045258 | 17 | 9 | 0.0 | 4.8 | 0.00 | 0.00 | 0.00 | 68 | 1014.3 |
| 20260504043142 | 18 | 328 | 0.0 | 8.0 | 0.00 | 0.00 | 0.00 | 67 | 1014.5 |
| 20260504042155 | 18 | 351 | 0.0 | 9.7 | 0.00 | 0.00 | 0.00 | 66 | 1014.6 |
| 20260504041127 | 18 | 315 | 0.0 | 9.7 | 0.00 | 0.00 | 0.00 | 65 | 1014.7 |
| 20260504040123 | 18 | 347 | 0.0 | 8.0 | 0.00 | 0.00 | 0.00 | 63 | 1014.7 |
| 20260504035128 | 18 | 42 | 0.0 | 8.0 | 0.00 | 0.00 | 0.00 | 62 | 1014.7 |
| 20260504033037 | 17 | 338 | 0.0 | 0.0 | 0.00 | 0.00 | 0.00 | 63 | 1014.4 |
| 20260504032022 | 17 | 349 | 0.0 | 0.0 | 0.00 | 0.00 | 0.00 | 64 | 1014.5 |
| 20260504030949 | 18 | 349 | 0.0 | 0.0 | 0.00 | 0.00 | 0.00 | 63 | 1014.5 |
| 20260504025947 | 18 | 349 | 0.0 | 0.0 | 0.00 | 0.00 | 0.00 | 63 | 1014.6 |
| 20260504024930 | 18 | 349 | 0.0 | 0.0 | 0.00 | 0.00 | 0.00 | 62 | 1014.6 |
| 20260504023922 | 18 | 349 | 0.0 | 0.0 | 0.00 | 0.00 | 0.00 | 62 | 1014.5 |
| 20260504022850 | 18 | 349 | 0.0 | 0.0 | 0.00 | 0.00 | 0.00 | 62 | 1014.5 |
| 20260504021824 | 18 | 349 | 0.0 | 0.0 | 0.00 | 0.00 | 0.00 | 61 | 1014.6 |
| 20260504020844 | 19 | 349 | 0.0 | 0.0 | 0.00 | 0.00 | 0.00 | 59 | 1014.4 |
| 20260504015856 | 20 | 349 | 0.0 | 0.0 | 0.00 | 0.00 | 0.00 | 57 | 1014.3 |
| 20260504014909 | 20 | 349 | 0.0 | 0.0 | 0.00 | 0.00 | 0.00 | 55 | 1014.0 |
| 20260504012800 | 21 | 349 | 0.0 | 0.0 | 0.00 | 0.00 | 0.00 | 54 | 1013.9 |
| 20260504011732 | 21 | 349 | 0.0 | 0.0 | 0.00 | 0.00 | 0.00 | 53 | 1014.0 |
| 20260504005528 | 22 | 348 | 0.0 | 1.6 | 0.00 | 0.00 | 0.00 | 47 | 1013.8 |
| 20260504004546 | 23 | 333 | 0.0 | 3.2 | 0.00 | 0.00 | 0.00 | 45 | 1013.8 |
| 20260504003531 | 23 | 340 | 0.0 | 1.6 | 0.00 | 0.00 | 0.00 | 45 | 1013.8 |
| 20260504002543 | 23 | 11 | 0.0 | 1.6 | 0.00 | 0.00 | 0.00 | 46 | 1014.0 |
| 20260504001533 | 23 | 10 | 0.0 | 0.0 | 0.00 | 0.00 | 0.00 | 46 | 1014.1 |
| 20260504000505 | 23 | 351 | 0.0 | 1.6 | 0.00 | 0.00 | 0.00 | 44 | 1014.3 |
| 20260503235507 | 25 | 347 | 0.0 | 6.4 | 0.00 | 0.00 | 0.00 | 41 | 1014.5 |
| 20260503233349 | 24 | 14 | 0.0 | 14.5 | 0.00 | 0.00 | 0.00 | 41 | 1014.6 |
| 20260503232319 | 24 | 24 | 0.0 | 6.4 | 0.00 | 0.00 | 0.00 | 43 | 1014.6 |
| 20260503231250 | 25 | 342 | 0.0 | 16.1 | 0.00 | 0.00 | 0.00 | 41 | 1014.5 |
| 20260503230245 | 25 | 289 | 1.6 | 16.1 | 0.00 | 0.00 | 0.00 | 38 | 1014.5 |
| 20260503224121 | 26 | 26 | 3.2 | 16.1 | 0.00 | 0.00 | 0.00 | 37 | 1014.8 |